STARLINK-33999 (63857 NORAD) Tracking and Keplerian Element Data

This shows tracking and keplerian element data for the satellite.

Feedback or suggestion? Click here.




ElementValue
Catalog63857
NameSTARLINK-33999
Epoch Orbit3581
Epoch Day354.17965729
Epoch Year2025
RAAN166.7654
Inclination42.9947
Eccentricity0.0001713
Argument of Perigee268.4648
Mean Anonmoly91.6007
Mean Motion15.27594428
Decay Rate0.00022143
L11 63857U 25093X 25354.17965729 .00022143 00000+0 81139-3 0 9999
L22 63857 42.9947 166.7654 0001713 268.4648 91.6007 15.27594428 35818



Live tracking and technical data element details for STARLINK-33999 (NORAD 63857). STARLINK-33999 can be tracked NOW for your location showing map with azimuth and elevation plus other details from your city location.







IsCatalogInMostPopularTable: catalog: 63857, numindb: 1
Update: records affected: 1



GetName: 63857 STARLINK-33999

Hit Count: updated at: Sun, 08 Feb 2026 09:11:27 GMT